CW8496 Weather Reports


Display with metric or nautical units.
time (UTC)temp
F
wind
direction
speed
MPH
gust
MPH
rain 1hr
in
rain 24hr
in
rain mn
in
humidity
%
barometer
mb
20260506203019 42 270 5.0 12.0 0.00 0.00 0.00 93 1022.2
20260506200039 42 270 5.0 11.0 0.00 0.00 0.00 92 1022.7
20260506193018 42 270 6.0 10.0 0.00 0.00 0.00 92 1023.2
20260506190019 42 270 5.0 12.0 0.00 0.00 0.00 91 1023.5
20260506183019 41 270 3.0 9.0 0.00 0.00 0.00 90 1023.4
20260506180018 42 270 3.0 11.0 0.00 0.00 0.00 90 1023.9
20260506173018 41 270 3.0 10.0 0.00 0.00 0.00 89 1024.2
20260506170018 42 270 3.0 9.0 0.00 0.00 0.00 90 1024.7
20260506163017 42 270 3.0 10.0 0.00 0.00 0.00 91 1025.1
20260506160017 42 270 2.0 9.0 0.00 0.00 0.00 90 1025.3
20260506153017 42 248 2.0 11.0 0.00 0.00 0.00 90 1025.9
20260506150022 43 248 2.0 9.0 0.00 0.00 0.00 90 1026.0
20260506143018 43 248 1.0 9.0 0.00 0.00 0.00 90 1026.2
20260506140043 43 248 1.0 8.0 0.00 0.00 0.00 91 1026.2
20260506133016 43 270 1.0 7.0 0.00 0.00 0.00 91 1026.3
20260506130038 43 0.0 4.0 0.00 0.00 0.00 91 1026.3
20260506123019 43 0.0 1.0 0.00 0.00 0.00 89 1026.5
20260506120100 44 0.0 7.0 0.00 0.00 0.00 90 1026.4
20260506113019 44 0.0 5.0 0.00 0.00 0.00 90 1026.7
20260506110023 44 0.0 7.0 0.00 0.00 0.00 89 1026.9
20260506103018 44 0.0 2.0 0.00 0.00 0.00 90 1026.9
20260506100018 45 0.0 2.0 0.00 0.00 0.00 90 1026.5
20260506093020 46 0.0 4.0 0.00 0.00 0.00 90 1026.1
20260506090038 46 0.0 3.0 0.00 0.00 0.00 90 1026.0
20260506083018 47 0.0 2.0 0.00 0.00 0.00 89 1026.0
20260506073018 50 0.0 4.0 0.00 0.00 0.00 82 1026.2
20260506043017 59 293 1.0 5.0 0.00 0.00 0.00 62 1027.3
20260506040018 60 293 2.0 9.0 0.00 0.00 0.00 65 1027.6
20260506033018 62 0 3.0 9.0 0.00 0.00 0.00 60 1027.7
20260506030037 60 0 3.0 11.0 0.00 0.00 0.00 58 1027.6
20260506023019 60 338 2.0 9.0 0.00 0.00 0.00 64 1028.4
20260506020017 59 0 2.0 8.0 0.00 0.00 0.00 58 1028.7
20260506013018 58 23 3.0 8.0 0.00 0.00 0.00 60 1029.2
20260506010017 57 0 4.0 10.0 0.00 0.00 0.00 59 1029.2
20260506003057 57 23 3.0 8.0 0.00 0.00 0.00 65 1029.8
20260506000018 55 23 3.0 9.0 0.00 0.00 0.00 71 1029.8
20260505233058 54 23 3.0 9.0 0.00 0.00 0.00 72 1029.7
20260505230018 54 113 3.0 10.0 0.00 0.00 0.00 77 1030.0
20260505223016 52 113 2.0 10.0 0.00 0.00 0.00 77 1029.7
20260505220027 49 158 2.0 9.0 0.00 0.00 0.00 80 1029.2
20260505213036 47 158 2.0 9.0 0.00 0.00 0.00 82 1028.6
20260505210016 46 158 2.0 10.0 0.00 0.00 0.00 82 1028.4